Flag for Austria Weather past 2 weeks in Fürstenfeld, Styria, Austria

Now
52 °F

Cool.


Feels Like: 52 °F
Forecast: 44 / 61 °F
Wind: 1 mph from Northeast

Location: Murska Sobota

Current Time: Apr 28, 2015 at 5:07:06 AM

Latest Report: Apr 28, 2015 at 4:00 AM


Visibility: N/A

Pressure: 29.59 "Hg

Humidity: 84%

Dew point: 47 °F

Location of FürstenfeldLocation

Historic Weather in Fürstenfeld — Graph

°F

Fürstenfeld temperature yesterday

Maximum temperature yesterday: 72 °F (at 4:00 PM)
Minimum temperature yesterday: 56 °F (at 2:00 AM)
Average temperature yesterday: 63 °F

Past Weeks' High & Low Weather Summary

 TemperatureHumidityPressure
High78 °F (Apr 16, 2:00 PM)96% (Apr 25, 6:00 AM)30.44 "Hg (Apr 25, 6:00 AM)
Low31 °F (Apr 19, 6:00 AM)20% (Apr 21, 6:00 PM)29.60 "Hg (Apr 28, 3:00 AM)
Average57 °F58%30.04 "Hg
* Reported Apr 13 3:00 AM — Apr 28 3:00 AM, Fürstenfeld, Weather by CustomWeather, © 2015

Note: Actual official high and low records may vary slightly from our data, if they occured in-between our weather recording intervals... More about our weather records

Advertising

Fürstenfeld weather history for previous 24 hours

 ConditionsComfort  
Time TempWeatherWind HumidityBarometerVisibility
3:00 AM
Tue, Apr 28
54 °FCool.1 mph81%29.60 "HgN/A
2:00 AM53 °FCool.1 mph82%29.62 "HgN/A
1:00 AM57 °FCool.3 mph72%29.63 "HgN/A
12:00 AM60 °FCool.5 mph66%29.64 "HgN/A
11:00 PM
Mon, Apr 27
60 °FCool.2 mph68%29.65 "HgN/A
10:00 PM61 °FCool.2 mph64%29.66 "HgN/A
9:00 PM63 °FMild.2 mph58%29.67 "HgN/A
8:00 PM63 °FPassing clouds.3 mph60%29.67 "Hg6 mi
7:00 PM67 °FMild.6 mph51%29.67 "HgN/A
6:00 PM69 °FMild.6 mph48%29.67 "HgN/A
5:00 PM71 °FMild.5 mph46%29.68 "HgN/A
4:00 PM72 °FMild.5 mph45%29.68 "HgN/A
2:00 PM70 °FPartly sunny.8 mph47%29.71 "Hg6 mi
1:00 PM71 °FMild.9 mph44%29.71 "HgN/A
12:00 PM70 °FMild.8 mph47%29.72 "HgN/A
11:00 AM68 °FMild.7 mph50%29.72 "HgN/A
10:00 AM66 °FMild.8 mph56%29.72 "HgN/A
9:00 AM63 °FMild.5 mph62%29.74 "HgN/A
8:00 AM60 °FPassing clouds.5 mph68%29.75 "Hg6 mi
7:00 AM59 °FScattered clouds.6 mph69%29.74 "Hg6 mi
6:00 AM58 °FCool.6 mph69%29.74 "HgN/A
5:00 AM58 °FCool.5 mph71%29.75 "HgN/A
Weather by CustomWeather, © 2015

See weather overviewHow to use our weather pages